Location: Newark
(25.6108°S, 54.5803°W)
Time: 10:09:17
(UTC+00:00)

deb Explorer IX - Pass Details

Date: 27 October 2020
Orbit: 538 x 1104 km, 38.8° (Epoch: 23 November)

Event Time Altitude Azimuth Distance (km) Brightness Sun altitude
Rises 05:12:10 0° 267° (W) 2,729 - -43.1°
Reaches altitude 10° 05:15:55 10° 302° (WNW) 1,896 - -42.5°
Maximum altitude 05:17:17 11° 320° (NW) 1,840 - -42.3°
Drops below altitude 10° 05:18:42 10° 339° (NNW) 1,961 - -42.1°
Sets 05:22:49 0° 13° (NNE) 2,992 - -41.5°
